Weather in Mirnyy

Russia / Arkhangel'skaya Oblast'     61°20′02″N   44°32′16″E
temp.,
°C
wind,
m/s
gust,
m/s
humid.,
%
clouds,
%
prec.,
mm/h
press.,
hPa
HPBL,
m
4 august, wed
wed400:00+13ssw288881 0.0 1007161
03:00+13sw27897 0.0 1007136
06:00+15sw311770 0.0 1007494
09:00+20sw47550 0.0 10081254
12:00+21wsw575072 0.0 10091937
15:00+19wsw475213 0.1 10111674
18:00+18wnw48520 0.0 10111449
21:00+12sw25770 0.0 101399
5 august, thu
thu500:00+10wsw39804 0.0 1014158
03:00+9w27800 0.0 1015120
06:00+11nw24715 0.0 1017166
09:00+17nw234654 0.0 1017844
12:00+20wnw343623 0.0 10172311
15:00+20nw343322 0.0 10172364
18:00+17wnw2548100 0.0 1018222
21:00+14nw2257100 0.0 101839
6 august, fri
fri600:00+12ne1163100 0.0 101912
03:00+11e116781 0.0 102011
06:00+13ene1364100 0.0 101998
09:00+17ene234766 0.0 1019633
12:00+20e2337100 0.0 10192322
15:00+13nw3783100 0.5 1019184
18:00+12n3796100 2.6 1020229
21:00+11ne2697100 4.1 1020172
7 august, sat
sat700:00+11ene2796100 0.2 1020213
03:00+11ne2796100 0.3 1020228
06:00+11ene2693100 0.0 1021206
09:00+17e475546 0.0 10211158
12:00+18e464997 0.0 10211464
15:00+18se3550100 0.0 10211293
18:00+17se1362100 0.0 1021170
21:00+12ene117957 0.0 102210
8 august, sun
sun800:00+10ene2478100 0.0 102270
03:00+9ene258085 0.0 1023100
06:00+11e3107193 0.0 1024307
09:00+17e4850100 0.0 1023770
12:00+20ese5740100 0.0 10231465
15:00+20ese3645100 0.0 10231348
18:00+17ese2659100 0.1 1023255
21:00+14se2873100 0.3 1024217